Total_Precipitation_Accumulation
0.12 0.39 0.89 1.39 2.30 2.54 1.87 1.08 0.67 0.46 0.47 0.57 0.65 0.78 0.89 1.08 1.50 2.39 2.29 1.86 1.68 1.91 2.04 2.15 2.24 2.08 2.21 2.35 2.39 2.55 3.02 3.24 3.10 2.85 2.75 2.97 3.24 3.46 3.58 3.47 3.49 3.78 4.21 4.41 4.26 3.98 3.77 3.57 3.42
0.28 0.79 1.33 1.95 2.51 2.01 1.48 0.86 0.51 0.39 0.37 0.48 0.53 0.50 0.53 0.63 0.73 1.17 1.73 1.64 1.39 1.46 1.56 1.65 1.90 1.91 1.93 2.10 2.25 2.40 2.76 3.10 2.92 2.74 2.61 2.87 3.23 3.53 3.71 3.71 3.61 3.86 4.26 4.60 4.47 4.13 3.85 3.52 3.26
0.60 1.04 1.54 2.19 1.90 1.34 1.05 0.61 0.43 0.38 0.44 0.54 0.52 0.46 0.58 0.88 0.85 1.14 1.51 1.40 1.27 1.33 1.43 1.73 1.83 1.77 1.83 2.00 2.17 2.29 2.52 2.68 2.60 2.64 2.72 2.99 3.40 3.71 3.79 3.71 3.63 3.75 4.06 4.45 4.54 4.05 3.51 3.20 3.06
0.89 1.32 1.61 1.86 1.24 0.81 0.69 0.56 0.41 0.35 0.51 0.64 0.67 0.59 0.63 0.88 0.98 1.16 1.25 1.19 1.29 1.47 1.52 1.70 1.83 1.77 1.92 1.98 1.97 2.13 2.33 2.41 2.56 2.70 2.81 3.13 3.44 3.64 3.65 3.51 3.48 3.64 3.88 4.12 4.13 3.71 3.22 3.06 3.11
1.08 1.46 1.82 1.37 0.82 0.63 0.54 0.44 0.36 0.37 0.45 0.65 0.75 0.85 1.03 1.19 1.09 1.03 1.09 1.13 1.20 1.40 1.59 1.72 1.80 1.69 1.71 1.68 1.77 2.04 2.15 2.26 2.50 2.59 2.77 3.10 3.43 3.59 3.63 3.52 3.62 3.67 3.86 4.02 3.78 3.41 3.16 3.25 3.20
1.22 1.48 1.45 1.01 0.62 0.48 0.41 0.37 0.38 0.40 0.54 0.64 0.69 0.89 1.36 1.51 1.22 1.06 1.16 1.26 1.26 1.35 1.49 1.71 1.73 1.58 1.51 1.57 1.72 1.89 2.04 2.19 2.40 2.48 2.67 3.00 3.34 3.40 3.24 3.30 3.49 3.35 3.60 3.74 3.45 3.20 3.03 3.14 3.19
1.09 1.12 0.95 0.77 0.64 0.53 0.39 0.34 0.44 0.46 0.75 0.89 0.92 0.99 1.47 1.65 1.26 1.13 1.30 1.43 1.44 1.33 1.40 1.55 1.64 1.56 1.52 1.59 1.80 1.95 2.06 2.26 2.43 2.49 2.72 3.10 3.35 3.35 3.18 3.16 3.28 3.32 3.61 3.50 3.18 3.15 3.01 3.01 3.17
0.65 0.69 0.56 0.52 0.55 0.50 0.38 0.32 0.39 0.48 0.66 0.73 0.88 1.11 1.52 1.49 1.17 1.19 1.37 1.52 1.48 1.42 1.48 1.48 1.60 1.50 1.46 1.60 1.95 2.21 2.31 2.58 2.80 2.84 3.05 3.52 3.58 3.49 3.34 3.11 3.24 3.38 3.56 3.46 3.25 3.20 3.15 3.17 3.31
0.57 0.58 0.52 0.41 0.36 0.37 0.29 0.30 0.33 0.49 0.55 0.59 0.76 0.98 1.28 1.13 1.11 1.32 1.60 1.72 1.64 1.62 1.75 1.70 1.73 1.53 1.56 1.61 1.90 2.33 2.48 2.84 3.27 3.46 3.74 4.13 4.17 3.82 3.76 3.35 3.66 3.80 3.86 3.87 3.72 3.68 3.61 3.51 3.54
0.42 0.44 0.31 0.24 0.24 0.27 0.24 0.30 0.33 0.49 0.87 1.05 1.21 1.20 1.12 1.19 1.30 1.41 1.61 1.81 1.89 1.93 1.73 1.76 1.83 1.67 1.77 1.74 2.09 2.77 2.83 3.19 3.63 3.91 3.95 4.26 4.39 4.30 3.73 4.03 4.56 4.78 4.88 4.85 4.72 4.69 4.36 3.77 3.44
0.29 0.25 0.16 0.17 0.18 0.19 0.22 0.28 0.26 0.43 1.04 1.56 1.70 1.39 1.12 1.32 1.53 1.70 1.77 1.87 1.82 1.92 1.70 1.79 1.89 2.02 2.14 2.47 2.31 2.53 3.03 3.62 3.82 4.00 4.27 4.39 4.18 4.03 3.89 4.35 5.06 5.33 5.35 5.22 5.15 5.11 4.51 4.15 4.11
0.20 0.13 0.11 0.12 0.16 0.17 0.19 0.24 0.27 0.42 0.95 1.35 1.38 1.17 1.10 1.39 1.61 1.84 2.00 2.26 2.35 2.30 2.24 2.19 2.38 2.62 2.68 2.53 2.54 2.49 2.72 3.29 3.79 4.05 3.90 4.09 4.54 4.49 4.14 4.26 4.57 4.83 5.00 5.27 4.92 4.79 4.68 4.47 4.13
0.17 0.12 0.12 0.12 0.16 0.18 0.22 0.23 0.32 0.54 0.67 0.75 0.86 0.95 1.15 1.44 1.78 2.17 2.45 2.68 2.74 3.04 3.22 3.15 3.12 3.07 3.15 3.19 3.08 2.72 3.10 3.15 3.23 3.66 3.76 3.82 4.33 4.62 4.55 4.48 4.65 4.25 4.33 4.72 4.79 4.46 4.51 4.55 4.25
0.14 0.13 0.13 0.15 0.17 0.21 0.24 0.29 0.39 0.65 0.71 0.77 0.84 0.89 1.08 1.55 2.07 2.52 2.70 2.87 3.09 3.77 4.28 4.08 3.90 3.65 3.58 3.66 3.68 3.65 3.38 3.30 3.11 3.38 3.61 3.78 4.22 4.55 4.66 4.63 4.67 4.20 4.06 4.23 4.33 4.20 4.42 4.39 4.22
0.17 0.22 0.25 0.22 0.19 0.26 0.36 0.55 0.63 0.78 0.77 0.80 0.93 0.98 1.14 1.58 1.98 2.66 3.09 3.44 3.67 4.42 5.03 4.81 4.66 4.65 4.48 4.39 4.08 3.71 3.45 3.28 3.50 3.71 3.88 4.03 4.18 4.56 4.77 4.73 4.57 4.43 4.37 4.38 4.28 4.23 4.53 4.23 4.04
0.24 0.33 0.47 0.35 0.27 0.30 0.46 0.99 0.93 0.87 0.80 0.91 1.11 1.04 1.09 1.42 1.92 2.62 3.31 3.90 4.26 4.63 5.09 5.44 5.04 5.46 5.46 5.27 4.88 4.39 4.09 4.08 4.05 3.99 4.18 4.02 3.96 4.13 4.64 4.48 4.23 4.45 4.58 4.68 4.60 4.46 4.52 4.53 4.58
0.34 0.38 0.52 0.48 0.32 0.31 0.45 1.03 1.02 0.77 0.79 0.98 1.14 1.15 1.17 1.45 1.84 2.34 2.99 3.65 4.27 4.86 5.44 5.95 6.13 6.23 5.83 5.57 5.34 5.14 4.78 4.48 4.05 3.66 3.61 3.52 3.31 3.29 3.56 3.64 3.74 3.83 4.05 4.02 3.76 4.18 4.38 4.55 4.68
0.34 0.32 0.39 0.55 0.43 0.34 0.45 0.80 0.92 0.83 0.80 1.02 1.22 1.19 1.24 1.47 1.88 2.28 2.82 3.30 4.02 4.95 5.87 6.32 6.49 6.11 5.72 5.45 5.15 5.03 4.63 4.22 3.85 3.48 3.26 3.07 3.06 2.91 3.12 2.99 3.10 3.30 3.63 3.76 3.88 4.18 4.10 4.00 4.16
0.24 0.28 0.32 0.42 0.35 0.36 0.52 0.83 0.96 0.96 0.97 1.10 1.29 1.30 1.31 1.43 1.82 2.29 2.80 3.27 3.98 4.96 5.98 6.45 6.32 5.76 5.28 4.91 4.60 4.34 3.98 3.67 3.53 3.23 2.91 2.88 2.87 2.92 3.23 2.95 3.34 3.35 3.45 3.46 3.44 3.63 3.59 3.35 3.49
0.22 0.29 0.32 0.39 0.32 0.38 0.57 0.93 1.13 1.20 1.24 1.15 1.22 1.34 1.28 1.45 1.89 2.39 2.97 3.34 3.69 4.28 5.12 5.53 5.25 4.69 4.09 3.90 3.83 3.80 3.71 3.28 3.05 2.99 3.00 2.69 2.72 2.83 2.91 3.12 2.98 3.06 3.29 3.17 3.14 3.48 3.46 3.09 3.23
0.21 0.26 0.31 0.37 0.34 0.46 0.65 1.27 1.52 1.45 1.18 0.96 0.88 1.04 1.09 1.19 1.68 2.40 2.96 3.24 3.50 3.78 3.87 4.02 3.96 3.55 3.27 3.21 3.21 3.25 3.45 3.20 2.90 2.82 2.79 2.56 2.48 2.49 2.67 2.76 2.91 3.08 2.98 3.08 3.16 3.24 3.38 3.30 3.21
0.22 0.18 0.19 0.26 0.40 0.66 0.77 1.68 1.98 1.63 1.33 1.07 0.90 0.91 1.00 1.13 1.53 2.26 2.59 2.72 2.78 2.87 2.76 2.86 2.97 2.91 2.92 2.85 2.90 2.77 2.64 2.64 2.53 2.54 2.50 2.49 2.37 2.31 2.26 2.42 2.70 2.87 2.83 3.09 2.81 2.97 3.29 3.41 3.17
0.20 0.16 0.17 0.27 0.45 0.68 0.94 1.53 2.07 1.79 1.54 1.16 0.87 0.85 1.00 1.03 1.24 1.55 1.68 1.84 1.92 1.98 2.02 2.27 2.65 2.83 2.77 2.70 2.84 2.83 2.50 2.36 2.28 2.32 2.49 2.49 2.37 2.24 2.13 2.24 2.50 2.69 2.77 2.89 2.90 3.21 3.16 3.11 3.09
0.17 0.20 0.26 0.45 0.69 1.20 1.22 1.40 1.92 1.76 1.46 1.02 0.82 0.78 0.72 0.76 0.92 1.10 1.22 1.33 1.40 1.45 1.56 1.82 2.27 2.55 2.53 2.53 2.56 2.48 2.42 2.39 2.35 2.32 2.39 2.32 2.26 2.35 2.45 2.41 2.49 2.49 2.58 2.67 2.78 3.00 3.03 3.02 3.07
0.15 0.22 0.54 1.03 1.53 1.68 1.12 1.29 1.71 1.35 0.99 0.72 0.60 0.61 0.63 0.77 0.83 0.97 1.17 1.27 1.23 1.18 1.29 1.47 1.78 1.96 1.97 2.07 2.24 2.34 2.40 2.37 2.22 2.18 2.17 2.11 1.92 2.05 2.33 2.50 2.60 2.62 2.65 2.61 2.71 2.76 2.80 2.88 3.01
0.18 0.21 0.43 0.77 0.94 1.10 1.05 1.58 1.72 1.02 0.76 0.64 0.57 0.57 0.69 0.75 0.74 0.82 0.98 1.02 1.02 1.08 1.14 1.27 1.43 1.53 1.63 1.73 1.93 2.13 2.17 2.16 2.12 2.28 2.14 1.98 1.76 1.71 1.93 2.22 2.36 2.39 2.38 2.40 2.88 2.67 2.60 2.77 2.84
0.17 0.18 0.22 0.32 0.42 0.81 1.25 1.56 1.43 0.95 0.72 0.62 0.57 0.54 0.68 0.70 0.62 0.66 0.77 0.83 0.86 1.02 1.11 1.15 1.25 1.37 1.48 1.57 1.86 2.04 2.06 2.03 2.07 2.17 2.07 1.87 1.86 1.74 1.81 1.88 2.20 2.34 2.34 2.41 2.67 2.61 2.56 2.72 2.69
0.15 0.17 0.19 0.26 0.47 0.82 1.28 1.75 1.68 1.25 0.91 0.77 0.61 0.52 0.59 0.59 0.56 0.62 0.67 0.75 0.74 0.77 0.93 1.05 1.12 1.31 1.50 1.59 1.66 1.69 1.87 1.86 1.85 1.79 1.74 1.81 1.84 1.79 1.86 1.97 1.99 2.12 2.29 2.43 2.62 2.48 2.43 2.58 2.64
0.16 0.14 0.16 0.20 0.29 0.60 1.14 1.45 1.08 0.91 0.74 0.71 0.68 0.61 0.60 0.63 0.64 0.63 0.70 0.72 0.69 0.68 0.83 0.99 1.11 1.25 1.34 1.36 1.40 1.50 1.61 1.61 1.59 1.58 1.55 1.66 1.71 1.76 1.79 1.87 1.97 2.01 2.13 2.42 2.75 2.64 2.63 2.66 2.66
0.13 0.12 0.14 0.19 0.24 0.33 0.69 0.92 0.60 0.62 0.60 0.67 0.71 0.72 0.76 0.84 0.82 0.80 0.83 0.81 0.79 0.80 0.85 0.97 1.00 1.06 1.12 1.16 1.24 1.32 1.46 1.50 1.50 1.53 1.64 1.75 1.77 1.75 1.69 1.78 1.87 1.81 1.94 2.24 2.55 2.70 2.82 2.93 2.87